Погода в Житомире

Хотите узнать прогноз погоды в Житомире? Тогда Вам сюда: Погода в Житомире

Поиск расширенной информации на нашем сайте:

Полезная информация:

Новости сайта



14.11.2019
Обновлён Долгосрочный прогноз погоды по России и другим странам хСССР на ноябрь-декабрь 2019 года.
Опубликованы прогностические карты: Предварительный прогноз на декабрь 2019 года, Предварительный прогноз на январь 2020 года, Предварительная схема синоптических процессов на декабрь 2019 г..

11.11.2019
Обновлены Долгосрочный прогноз погоды по России и другим странам хСССР на ноябрь-декабрь 2019 года и Предварительный прогноз на зиму 2019/2020 годов

04.11.2019
Опубликован Долгосрочный прогноз погоды по России и другим странам хСССР на ноябрь 2019 года
Сравнение прогнозируемой аномалии приземной температуры воздуха на ноябрь 2019 года по разным моделям
Предварительный прогноз на зиму 2019/2020 года




Погода в Житомире - сегодня

Время (UTC), дата Ветер
(°,м/с) 
Видим.   Явления Облачность Т
(°С)
Тd
(°С)
f(%) Тe
(°С)
Pmin
(гПа)
dP
(гПа)
Po
(мм)
O2
(г/м3)
Тmin Tmax R s Состояние
почвы
00 18.11.19 150 (ЮВ) 4000 м  дымка  9/9 240 м 
[St]
+6.2 +4.8 91 +6  1024.8  -0.7  748  294           
03 18.11.19 150 (ЮВ) 4000 м  дымка  9/9 240 м 
[St]
+5.4 +4 91 +4  1024.1  -0.7  748  295           
06 18.11.19 130 (ЮВ) 0500 м  туман  ?/?  
+3 +3 100 +2  1024.8  0.4  748  298  +2.8         
09 18.11.19 140 (ЮВ) 1000 м  в посл. час туман{морось}  10/10 180 м 
[St]
+2 +1.5 96 +1  1024.8  -0.1  748  299           
12 18.11.19 150 (ЮВ) 4000 м  дымка{морось}  10/10 210 м 
[St]
+2.6 +1.6 93 +1  1024.1  -0.6  748  298      0.0     
15 18.11.19 120 (ЮВ) 1000 м  слаб. морось  10/10 180 м 
[St]
+2.8 +2.3 97 +1  1023.8  -0.3  747  298           
18 18.11.19 130 (ЮВ) 1000 м  в посл. час морось  10/10 150 м 
[St]
+2.6 +2.3 98 +2  1024.4  0.6  748  298    +3.8  0.1     
21 18.11.19 160 (Ю) 4000 м  слаб. морось  10/10 210 м 
[St]
+3.6 +2.9 95 +3  1024.9  0.6  748  297           
00 19.11.19 170 (Ю) 4000 м  слаб. морось  10/10 210 м 
[St]
+4.6 +3.6 93 +4  1025.4  0.6  749  296      0.0     
03 19.11.19 160 (Ю) 4000 м  слаб. морось  10/10 240 м 
[St]
+5.2 +4.3 94 +6  1025.6  0.2  749  295           
06 19.11.19 тихо ()   4000 м  в посл. час морось  10/10 210 м 
[St]
+5.7 +4.8 94 +6  1026.8  1.2  750  295  +2.4    0.0     
09 19.11.19 тихо ()   2000 м  дымка{морось}  10/10 210 м 
[St]
+7.6 +6.5 93 +8  1026.7  0.1  750  293           
12 19.11.19 130 (ЮВ) 4000 м  дымка{морось}  10/10 210 м 
[St]
+8.4 +7.1 92 +9  1026.8  0.2  750  292      0.0     
15 19.11.19 130 (ЮВ) 2000 м  дымка  10/10 180 м 
[St]
+7.8 +7.2 96 +9  1026.7  -0.1  750  293           
18 19.11.19 090 (В) 0500 м  туман  ?/?  
+7.7 +7.7 100 +9  1027.1  0.3  750  293    +9.1  0.0     
21 19.11.19 030 (СВ) 0200 м  туман{морось}  ?/?  
+7.6 +7.6 100 +9  1027.3  0.2  750  293           
00 20.11.19 060 (СВ) 0200 м  туман{морось}  ?/?  
+7.8 +7.8 100 +9  1027.3  750  293      0.0     
03 20.11.19 070 (В) 0500 м  слаб. морось{туман}  ?/?  
+8 +8 100 +9  1027.3  0.1  750  292           
06 20.11.19 100 (В) 0500 м  слаб. морось{туман}  ?/?  
+7.8 +7.8 100 +8  1027.8  0.4  751  293  +7.4    0.0     
09 20.11.19 100 (В) 1000 м  в посл. час морось{туман}  10/10 210 м 
[St]
+7.7 +7.3 97 +8  1028  0.2  751  293           
12 20.11.19 100 (В) 1000 м  слаб. морось{туман}  ?/?  
+6.3 +6.3 100 +5  1028.3  0.2  751  295      0.3     
15 20.11.19 100 (В) 1000 м  слаб. морось{туман}  ?/?  
+4.8 +4.8 100 +3  1029.3  0.8  752  297           
18 20.11.19 110 (В) 2000 м  слаб. морось{туман}  10/10 180 м 
[St]
+3.8 +2.8 93 +3  1029.8  0.4  752  298    +7.9  0.8     
21 20.11.19 120 (ЮВ) 2000 м  слаб. морось  10/10 270 м 
[St]
+3.5 +2.8 95 +2  1030.5  0.6  752  299           
00 21.11.19 130 (ЮВ) 2000 м  дымка{морось}  10/10 210 м 
[St]
+3 +2 93 +1  1031.2  0.6  753  300      0.6     
Время (UTC), дата Ветер
(°,м/с) 
Видим.   Явления Облачность Т
(°С)
Тd
(°С)
f(%) Тe
(°С)
Pmin
(гПа)
dP
(гПа)
Po
(мм)
O2
(г/м3)
Тmin Tmax R s Состояние
почвы

Для получения пояснительной информации подведите курсор к названию столбца.

ПОГОДА в Житомире - архив

Всё, что Вы хотите узнать о погоде в Житомире - удобно и подробно!

Выберите нужную дату (начиная с 1 января 2019* года) и нажмите кнопку "Найти".
Будут отображены архивные сводки погоды по пункту Житомир, начиная с указанной даты.


Отображать данные в формате CSV (для использования в таблицах Excel)


Внимание! Наш архив погоды предназначен исключительно для личного некоммерческого использования в познавательных целях. Если Вам необходимы официальные справки о состоянии погоды (для производственных, юридических, коммерческих и т.п. целей), обращайтесь в органы Росгидромета.

*Примечание: данная дата относится к архиву по метеостанциям СССР (Россия, СНГ, Балтия).
Архив по метеостанциям Зарубежной Европы и Азии (кроме Китая) хранится 10 дней, по другим регионам земного шара (Китай, Африка, Америка, Австралия, Океания) - 1 день.

Житомир - район местоположения метеостанции


Название, широта, долгота, высота метеостанции:
Житомир 50.2°ш. 28.7°д. 224 м над ур. моря [Украина]

Дополнительная информация

В oтличие oт бoльшинства пoгoдных сайтoв мы публикуем пoдрoбную метеoинфoрмацию в детальнoм прoфессиoнальнoм фoрмате.

Характеристики температуры и влажнoсти вoздуха измеряются на высoте 2 м в тени вдали oт зданий и деревьев.
Скoрoсть ветра измеряется на высoте 10 м (на урoвне рoста челoвека скoрoсть ветра ниже в 1.5-2 раза). Если метеoстанция нахoдится в гoрoде или в лесу, тo скoрoсть ветра занижена на 2-4 м/с пo сравнению с oткрытым местoм. Скoрoсть ветра над акватoриями крупных рек и oзёр, а также на вершинах хoлмoв на 2-5 м/с выше, чем в oбычных услoвиях.
Атмoсфернoе давление в разных тoчках местнoсти мoжет значительнo oтличаться oт давления на метеoстанции, в зависимoсти oт услoвий рельефа (при пoдъёме на 10 м давление пoнижается примернo на 1 мм рт.ст.).